Location: Vlissingen
(51.4500°N, 3.5830°E)
Time: 12:08:53
(UTC+01:00)

ISS - Visible Passes

Search period start: 02 December 2021 00:00
Search period end: 12 December 2021 00:00
Orbit: 417 x 423 km, 51.6° (Epoch: 02 December)

Date Brightness Start Highest point End Pass type
(mag) Time Alt. Az. Time Alt. Az. Time Alt. Az.
02 Dec -3.8 17:56:18 10° W 17:59:44 88° S 18:02:15 17° E visible
02 Dec -1.6 19:33:14 10° W 19:35:15 27° WSW 19:35:15 27° WSW visible
03 Dec -2.9 18:45:58 10° W 18:49:16 47° SSW 18:50:10 36° SSE visible
04 Dec -3.3 17:58:44 10° W 18:02:07 62° SSW 18:05:13 12° ESE visible
04 Dec -1.2 19:36:04 10° W 19:38:14 18° SW 19:38:14 18° SW visible
05 Dec -3.5 17:11:31 10° W 17:14:56 76° SSW 17:18:19 10° ESE visible
05 Dec -1.7 18:48:34 10° W 18:51:27 25° SSW 18:53:28 15° SSE visible
06 Dec -2.1 18:01:13 10° W 18:04:20 35° SSW 18:07:27 10° SE visible
07 Dec -2.6 17:13:55 10° W 17:17:12 46° SSW 17:20:28 10° SE visible
07 Dec -0.6 18:51:55 10° WSW 18:53:24 12° SW 18:54:54 10° SSW visible
08 Dec -0.8 18:04:00 10° W 18:06:23 18° SW 18:08:45 10° S visible
09 Dec -1.2 17:16:27 10° W 17:19:18 25° SSW 17:22:08 10° SSE visible
11 Dec -0.2 17:19:46 10° WSW 17:21:11 12° SW 17:22:37 10° SSW visible
